User: anonymous   Login
Location: Newark
(48.7667°N, 7.9833°E)
Time: 15:19:46
(UTC+00:00)
Language:

YUBILEINY - Orbit

View from above orbital plane
View from above orbital plane
View from above satellite
View from above satellite

Ground track
Ground track

The orbit data is extracted from the following two-line orbital elements,

1 32953U 08025A   19296.40664028  .00000020  00000-0  75656-4 0  9999
2 32953  82.5018  65.9501 0019140 210.9411 149.0550 12.43091878518053
Epoch (UTC): 23 October 2019 09:45:33
Eccentricity: 0.0019140
inclination: 82.5018°
perigee height: 1478 km
apogee height: 1508 km
right ascension of ascending node: 65.9501°
argument of perigee: 210.9411°
revolutions per day: 12.43091878
mean anomaly at epoch: 149.0550°
orbit number at epoch: 51805

The dashed part of the orbit path shows where the satellite is in the earth's shadow,  

DLR